Home   Weather   Lucerne   Past weeks
Flag for Switzerland

Past Weather in Lucerne, Lucerne, Switzerland — Yesterday and Last 2 Weeks

Now
48 °F

Cool.


Feels Like: 48 °F
Forecast: 67 / 51 °F
Wind: 2 mph from West

Location: Giswil

Current Time: Oct 23, 2019 at 2:04:49 am

Latest Report: Oct 23, 2019 at 1:00 am


Visibility: N/A

Pressure: 30.15 "Hg

Humidity: 99%

Dew Point: 48 °F

Location of LucerneLocation

Past Weather in Lucerne — Graph

°F

Lucerne Temperature Yesterday

Maximum temperature yesterday: 58 °F (at 2:00 pm)
Minimum temperature yesterday: 52 °F (at 11:00 pm)
Average temperature yesterday: 56 °F

High & Low Weather Summary for the Past Weeks

 TemperatureHumidityPressure
High69 °F (Oct 14, 3:00 pm)100% (Oct 8, 12:00 am)30.30 "Hg (Oct 8, 12:00 am)
Low36 °F (Oct 11, 8:00 am)47% (Oct 11, 3:00 pm)29.70 "Hg (Oct 20, 5:00 pm)
Average52 °F91%30.03 "Hg
* Reported Oct 8 12:00 am — Oct 23 12:00 am, Lucerne. Weather by CustomWeather, © 2019

Note: Actual official high and low records may vary slightly from our data, if they occured in-between our weather recording intervals... More about our weather records

Advertising

Lucerne Weather History for the Previous 24 Hours

Scroll right to see more
 ConditionsComfort  
Time TempWeatherWind HumidityBarometerVisibility
12:00 am
Wed, Oct 23
47 °FCool.1 mph100%30.17 "HgN/A
11:00 pm
Tue, Oct 22
52 °FCool.1 mph99%30.16 "HgN/A
10:00 pm55 °FCool.2 mph100%30.16 "HgN/A
9:00 pm55 °FCool.No wind99%30.17 "HgN/A
8:00 pm56 °FCool.No wind99%30.18 "HgN/A
7:00 pm56 °FCool.1 mph99%30.18 "HgN/A
6:00 pm57 °FCool.No wind99%30.17 "HgN/A
5:00 pm58 °FCool.No wind99%30.17 "HgN/A
4:00 pm58 °FCool.1 mph97%30.17 "HgN/A
3:00 pm58 °FCool.1 mph99%30.19 "HgN/A
2:00 pm58 °FCool.No wind99%30.21 "HgN/A
1:00 pm57 °FCool.1 mph99%30.22 "HgN/A
12:00 pm57 °FCool.1 mph100%30.23 "HgN/A
11:00 am56 °FCool.No wind99%30.23 "HgN/A
10:00 am56 °FCool.1 mph99%30.21 "HgN/A
9:00 am55 °FCool.1 mph100%30.21 "HgN/A
8:00 am55 °FCool.No wind99%30.20 "HgN/A
7:00 am55 °FCool.2 mph99%30.19 "HgN/A
6:00 am55 °FCool.1 mph100%30.20 "HgN/A
5:00 am54 °FCool.2 mph99%30.20 "HgN/A
4:00 am55 °FCool.1 mph99%30.19 "HgN/A
3:00 am56 °FCool.1 mph100%30.19 "HgN/A
2:00 am56 °FCool.1 mph99%30.21 "HgN/A
Weather by CustomWeather, © 2019

See weather overview